This is the latest recevied weather packets stored in our database for station/object W0AVQ. If no packets are shown the sender has not sent any weather packets the latest 10 day(s).
| Time | Temp. | Humidity | Pressure | Rain* | Wind** | Luminosity | Snow |
|---|---|---|---|---|---|---|---|
| 1777573430 | 17.78° C | 42% | 1019.3 hPa | 0 mm | - | 62 W/m² | - |
| 1777573126 | 17.78° C | 48% | 1019.3 hPa | 0 mm | - | 53 W/m² | - |
| 1777572823 | 18.89° C | 43% | 1019.4 hPa | 0 mm | - | 51 W/m² | - |
| 1777572518 | 17.78° C | 47% | 1019.3 hPa | 0 mm | - | 50 W/m² | - |
| 1777572214 | 17.78° C | 42% | 1019.3 hPa | 0 mm | - | 51 W/m² | - |
| 1777571910 | 17.78° C | 45% | 1019.2 hPa | 0 mm | - | 50 W/m² | - |
| 1777571604 | 18.33° C | 42% | 1019.5 hPa | 0 mm | - | 50 W/m² | - |
| 1777571303 | 18.33° C | 46% | 1019.6 hPa | 0 mm | - | 51 W/m² | - |
| 1777570998 | 17.22° C | 42% | 1019.6 hPa | 0 mm | - | 51 W/m² | - |
| 1777570694 | 17.78° C | 45% | 1019.7 hPa | 0 mm | - | 102 W/m² | - |
| 1777570391 | 17.78° C | 44% | 1020 hPa | 0 mm | - | 134 W/m² | - |
| 1777570086 | 17.22° C | 42% | 1019.9 hPa | 0 mm | - | 272 W/m² | - |
| 1777569783 | 17.22° C | 40% | 1020 hPa | 0 mm | - | 363 W/m² | - |
| 1777569478 | 17.22° C | 43% | 1020.2 hPa | 0 mm | - | 439 W/m² | - |
| 1777569175 | 17.22° C | 44% | 1020.1 hPa | 0 mm | - | 106 W/m² | - |
| 1777568871 | 17.22° C | 42% | 1020.1 hPa | 0 mm | - | 184 W/m² | - |
| 1777568569 | 17.22° C | 41% | 1020.3 hPa | 0 mm | - | 456 W/m² | - |
| 1777568266 | 17.78° C | 42% | 1020.5 hPa | 0 mm | - | 491 W/m² | - |
| 1777567962 | 17.22° C | 42% | 1020.6 hPa | 0 mm | - | 568 W/m² | - |
| 1777567659 | 17.22° C | 41% | 1020.6 hPa | 0 mm | - | 467 W/m² | - |
| 1777567356 | 17.22° C | 42% | 1020.6 hPa | 0 mm | - | 517 W/m² | - |
| 1777567054 | 17.78° C | 43% | 1020.6 hPa | 0 mm | - | 303 W/m² | - |
| 1777566752 | 17.22° C | 44% | 1020.8 hPa | 0 mm | - | 173 W/m² | - |
| 1777566449 | 17.22° C | 41% | 1020.8 hPa | 0 mm | - | 629 W/m² | - |
| 1777566147 | 16.67° C | 41% | 1020.7 hPa | 0 mm | - | 663 W/m² | - |
* Rain latest hour (hover to see other rain measurements)
** Current wind speed in m/s (hover to see current wind gust speed)